This demonstration page uses our WeatherBlox Daily Observations layout. Learn more.

Left ArrowRight Arrow

39.92423, -83.80882

Hourly Observations for January 31, 2017

Temp ( °F °C ) Dew Point ( °F °C ) Humidity (%) Winds ( mph kmh ) Pressure ( in mb ) Visibility ( mi km ) Precip ( " mm )
12:56 am 00:56 Clear 31 -0.6 21 -6.1 67 67 SSE 8 13 29.7 1006 10 16.0934 0 0
1:56 am 01:56 Clear 33 0.6 21 -6.1 61 61 SSW 13 20 29.66 1005 10 16.0934 0 0
2:56 am 02:56 Clear 34 1.1 23 -5 64 64 SW 15 24 29.63 1004 10 16.0934 0 0
3:56 am 03:56 Mostly Cloudy 37 2.8 28 -2.2 70 70 WSW 22 35 29.62 1003 10 16.0934 0 0
4:56 am 04:56 Cloudy 38 3.3 29 -1.7 70 70 WSW 17 28 29.63 1003 10 16.0934 0 0
5:14 am 05:14 Cloudy 39 4 30 -1 70 70 W 20 31 29.62 1003 10 16.0934 0 0
5:56 am 05:56 Cloudy 39 3.9 31 -0.6 73 73 W 20 31 29.63 1004 10 16.0934 0 0
6:56 am 06:56 Cloudy 39 3.9 31 -0.6 73 73 W 22 35 29.65 1004 10 16.0934 0 0
7:56 am 07:56 Cloudy 39 3.9 31 -0.6 73 73 W 23 37 29.68 1005 10 16.0934 0 0
8:56 am 08:56 Cloudy 38 3.3 31 -0.6 76 76 W 21 33 29.72 1006 10 16.0934 0 0
9:56 am 09:56 Cloudy 39 3.9 31 -0.6 73 73 W 22 35 29.75 1007 10 16.0934 0 0
10:56 am 10:56 Cloudy 39 3.9 31 -0.6 73 73 WSW 21 33 29.78 1008 10 16.0934 0 0
11:56 am 11:56 Cloudy 39 3.9 31 -0.6 73 73 W 21 33 29.8 1009 10 16.0934 0 0
12:56 pm 12:56 Cloudy 39 3.9 31 -0.6 73 73 W 23 37 29.8 1009 10 16.0934 0 0
1:56 pm 13:56 Cloudy 40 4.4 29 -1.7 65 65 W 28 44 29.79 1009 10 16.0934 0 0
2:36 pm 14:36 Cloudy 39 4 30 -1 70 70 W 25 41 29.8 1009 10 16.0934 0 0
2:56 pm 14:56 Cloudy 39 3.9 30 -1.1 70 70 W 25 41 29.8 1009 10 16.0934 0 0
3:35 pm 15:35 Cloudy 39 4 30 -1 70 70 W 20 31 29.83 1010 10 16.0934 0 0
3:56 pm 15:56 Cloudy 39 3.9 29 -1.7 67 67 W 22 35 29.83 1010 10 16.0934 0 0
4:56 pm 16:56 Cloudy 39 3.9 29 -1.7 67 67 W 21 33 29.86 1011 10 16.0934 0 0
5:56 pm 17:56 Cloudy 39 3.9 29 -1.7 67 67 W 22 35 29.9 1013 10 16.0934 0 0
6:56 pm 18:56 Cloudy 38 3.3 30 -1.1 73 73 W 14 22 29.93 1014 10 16.0934 0 0
7:56 pm 19:56 Partly Cloudy 37 2.8 30 -1.1 76 76 W 9 15 29.95 1014 10 16.0934 0 0
8:56 pm 20:56 Partly Cloudy 36 2.2 30 -1.1 79 79 WSW 12 19 29.96 1015 10 16.0934 0 0
9:56 pm 21:56 Mostly Cloudy 37 2.8 30 -1.1 76 76 WSW 12 19 29.96 1015 10 16.0934 0 0
10:56 pm 22:56 Clear 35 1.7 30 -1.1 82 82 WSW 7 11 29.97 1015 10 16.0934 0 0
11:56 pm 23:56 Cloudy 37 2.8 31 -0.6 79 79 WSW 12 19 29.98 1015 10 16.0934 0 0

Powered by AerisWeather